Regional Weather Roundup
Issued by NWS

Home | Current Version | Previous Version | Text Only | Print | Product List | Glossary Off
Versions: 1 2 3 4 5 6 7 8 9 10 11 12 13 14 15 16 17 18 19 20 21 22 23 24 25 26 27 28 29 30 31 32 33 34 35 36 37 38 39 40 41 42 43 44 45 46 47 48 49 50

000
ASUS43 KOAX 251202
RWRNE

WEATHER ROUNDUP FOR NEBRASKA
NATIONAL WEATHER SERVICE OMAHA NE
700 AM CDT SAT APR 25 2015

NOTES: SATELLITE DATA IS BEING USED TO AUGMENT CLOUD COVER ABOVE
       12000 FEET.
       "FAIR" INDICATES FEW OR NO CLOUDS BELOW 12,000 FEET WITH NO
       SIGNIFICANT WEATHER AND/OR OBSTRUCTIONS TO VISIBILITY.

  * THESE STATIONS DO NOT REPORT WEATHER SUCH AS RAIN...SNOW OR FOG.

NEZ001>004-019>022-054>056-251300-
NEBRASKA PANHANDLE

CITY           SKY/WX    TMP DP  RH WIND       PRES   REMARKS
SCOTTSBLUFF    CLEAR     40  50 100 MISG      29.69R
6HR MIN TEMP:  39; 6HR MAX TEMP:  48;

ALLIANCE       CLEAR     37  36  96 NW5       29.67R WCI  33
6HR MIN TEMP:  36; 6HR MAX TEMP:  45;

CHADRON        CLEAR     36  35  96 CALM      29.68R
6HR MIN TEMP:  34; 6HR MAX TEMP:  44;

KIMBALL        PTCLDY    41  35  78 NW10      29.69S
SIDNEY         CLEAR     39  37  92 W9        29.69R WCI  33
6HR MIN TEMP:  38; 6HR MAX TEMP:  49;

$$

NEZ057>060-069>072-079>082-251300-
SOUTHWEST NEBRASKA

CITY           SKY/WX    TMP DP  RH WIND       PRES   REMARKS
IMPERIAL       CLEAR     46  41  82 NW14      29.63S
6HR MIN TEMP:  44; 6HR MAX TEMP:  52;

MCCOOK         PTCLDY    49  45  86 NW9       29.59R
6HR MIN TEMP:  49; 6HR MAX TEMP:  55; 6HR PCP:  0.09;

$$

NEZ005>010-023>029-035>040-094-251300-
NORTH CENTRAL NEBRASKA

CITY           SKY/WX    TMP DP  RH WIND       PRES   REMARKS
VALENTINE      CLOUDY    49  46  90 NW9       29.63R
6HR MIN TEMP:  49; 6HR MAX TEMP:  59; 6HR PCP: TRACE;

AINSWORTH      CLOUDY    50  47  91 NE7       29.63R
BROKEN BOW     PTCLDY    50  47  89 N10       29.59R
6HR MIN TEMP:  47; 6HR MAX TEMP:  56;

ORD            CLOUDY    54  50  86 NE12      29.57R
6HR MIN TEMP:  51; 6HR MAX TEMP:  58; 6HR PCP: TRACE;

$$

NEZ041-046>049-061>064-073>077-083>087-251300-
SOUTH CENTRAL NEBRASKA

CITY           SKY/WX    TMP DP  RH WIND       PRES   REMARKS
GRAND ISLAND   CLOUDY    53  52  96 NE10      29.52R
6HR MIN TEMP:  53; 6HR MAX TEMP:  55; 6HR PCP:  0.38;

AURORA         LGT RAIN  53  53 100 N15       29.51S
HASTINGS       CLOUDY    53  52  96 NE12      29.50S
6HR MIN TEMP:  53; 6HR MAX TEMP:  56; 6HR PCP:  1.05;

HEBRON         RAIN      54  52  94 N9        29.47R
HOLDREGE       MOCLDY    49  48  97 NW9       29.54S
KEARNEY *      CLOUDY    52  48  87 NW6       29.54S
YORK           RAIN      52  50  93 NE12      29.51R
$$

NEZ011>018-030>034-042>045-251300-
NORTHEAST NEBRASKA

CITY           SKY/WX    TMP DP  RH WIND       PRES   REMARKS
NORFOLK        LGT RAIN  49  47  93 NE20      29.57R
6HR MIN TEMP:  49; 6HR MAX TEMP:  57; 6HR PCP:  0.02;

ALBION         CLOUDY    51  49  93 NE18G24   29.54R FOG
BLAIR          LGT RAIN  49  47  93 NE14G20   29.51R
COLUMBUS *     CLOUDY    48  45  87 NE15      29.55R
FREMONT        LGT RAIN  51  49  95 N10       29.53R
TEKAMAH        CLOUDY    50  47  89 NE17      29.56R
6HR MIN TEMP:  50; 6HR MAX TEMP:  57; 6HR PCP:  0.09;

WAYNE          CLOUDY    46  45  96 NE17      29.58S FOG
$$

NEZ050>053-065>068-078-088>093-251300-
SOUTHEAST NEBRASKA

CITY           SKY/WX    TMP DP  RH WIND       PRES   REMARKS
LINCOLN        LGT RAIN  53  52  96 N13       29.48R FOG
6HR MIN TEMP:  53; 6HR MAX TEMP:  56; 6HR PCP:  0.22;

OMAHA EPPLEY   LGT RAIN  51  49  92 VRB7G20   29.50R FOG
6HR MIN TEMP:  51; 6HR MAX TEMP:  57; 6HR PCP:  0.52;

BEATRICE       DRIZZLE   55  54  97 NE10      29.43R
FALLS CITY     LGT RAIN  56  54  93 E9        29.39R
6HR MIN TEMP:  56; 6HR MAX TEMP:  58; 6HR PCP:  0.23;

NEBRASKA CITY  DRIZZLE   54  54 100 E13       29.44R
PLATTSMOUTH    CLOUDY    53  51  94 NE12      29.47R FOG
$$

NEZ044-045-051>053-067-251300-
OMAHA AREA

CITY           SKY/WX    TMP DP  RH WIND       PRES   REMARKS
OMAHA EPPLEY   LGT RAIN  51  49  92 VRB7G20   29.50R FOG
6HR MIN TEMP:  51; 6HR MAX TEMP:  57; 6HR PCP:  0.52;

BLAIR          LGT RAIN  49  47  93 NE14G20   29.51R
FREMONT        LGT RAIN  51  49  95 N10       29.53R
OFFUTT AFB     LGT RAIN  52  51  95 NE10      29.48R
PLATTSMOUTH    CLOUDY    53  51  94 NE12      29.47R FOG
WAHOO          LGT RAIN  51  48  90 N14G20    29.51R
$$



USA.gov is the U.S. government's official web portal to all federal, state and local government web resources and services.